This is the latest recevied weather packets stored in our database for station/object W4MLN-3. If no packets are shown the sender has not sent any weather packets the latest 10 day(s).
| Time | Temp. | Humidity | Pressure | Rain* | Wind** | Luminosity | Snow |
|---|---|---|---|---|---|---|---|
| 1787423703 | 27.78° C | 54% | 1017.4 hPa | 0 mm | - | - | - |
| 1787423403 | 27.78° C | 54% | 1017.4 hPa | 0 mm | - | - | - |
| 1787423103 | 27.22° C | 63% | 1017.5 hPa | 0 mm | - | - | - |
| 1787422803 | 26.67° C | 67% | 1017.5 hPa | 0 mm | - | - | - |
| 1787422503 | 26.67° C | 63% | 1017.6 hPa | 0 mm | - | - | - |
| 1787422203 | 26.67° C | 63% | 1017.6 hPa | 0 mm | - | - | - |
| 1787421903 | 26.67° C | 67% | 1017.8 hPa | 0 mm | - | - | - |
| 1787421603 | 26.67° C | 63% | 1017.8 hPa | 0 mm | - | - | - |
| 1787421303 | 26.67° C | 66% | 1017.9 hPa | 0 mm | - | - | - |
| 1787421003 | 26.67° C | 60% | 1017.9 hPa | 0 mm | - | - | - |
| 1787420703 | 27.22° C | 59% | 1017.9 hPa | 0 mm | - | - | - |
| 1787420403 | 27.22° C | 58% | 1017.8 hPa | 0 mm | - | - | - |
| 1787420103 | 27.22° C | 60% | 1017.9 hPa | 0 mm | - | - | - |
| 1787419803 | 27.22° C | 61% | 1017.9 hPa | 0 mm | - | - | - |
| 1787419503 | 26.67° C | 63% | 1017.9 hPa | 0 mm | - | - | - |
| 1787419203 | 26.67° C | 62% | 1017.9 hPa | 0 mm | - | - | - |
| 1787418903 | 26.67° C | 63% | 1017.9 hPa | 0 mm | - | - | - |
| 1787418603 | 26.67° C | 63% | 1018.1 hPa | 0 mm | - | - | - |
| 1787418324 | 26.67° C | 65% | 1018.1 hPa | 0 mm | - | - | - |
| 1787418003 | 26.67° C | 66% | 1018.1 hPa | 0 mm | - | - | - |
| 1787417724 | 26.11° C | 68% | 1018.2 hPa | 0 mm | - | - | - |
| 1787417103 | 25° C | 69% | 1018.2 hPa | 0 mm | - | - | - |
| 1787416803 | 25° C | 65% | 1018.3 hPa | 0 mm | - | - | - |
| 1787416503 | 25.56° C | 64% | 1018.4 hPa | 0 mm | - | - | - |
| 1787416203 | 26.11° C | 62% | 1018.4 hPa | 0 mm | - | - | - |
* Rain latest hour (hover to see other rain measurements)
** Current wind speed in m/s (hover to see current wind gust speed)